Whyalla, Australia

5:08 PM ACDT on March 23, 2017 (GMT +1030)
Whyalla

Weather History for 94664 - May, 2014

Change the Weather History Date:

Friday, May 9, 2014

  Actual Average Record
Temperature  
Mean Temperature 56 °F -  
Max Temperature 60 °F - - ()
Min Temperature 53 °F - - ()
Degree Days  
Heating Degree Days 8    
Growing Degree Days 6 (Base 50)    
Moisture  
Dew Point 52 °F    
Average Humidity 86    
Maximum Humidity 100    
Minimum Humidity 48    
Precipitation  
Precipitation 0.00 in - - ()
Sea Level Pressure  
Sea Level Pressure 29.97 in    
Wind  
Wind Speed 12 mph ()    
Max Wind Speed 22 mph    
Max Gust Speed -    
Visibility 6.0 miles    
Events      
T = Trace of Precipitation, MM = Missing Value Source: Averaged Metar Reports

Daily Weather History Graph

Daily Weather History Graph

Search for Another Location

Airport or City:

Trip Planner

Search our weather history database for the weather conditions in past years. The results will help you decide how hot, cold, wet, or windy it might be!

Date:

Astronomy

May. 09, 2014 Rise Set
Actual Time 6:58 AM ACST 5:33 PM ACST
Civil Twilight 6:32 AM ACST 5:59 PM ACST
Nautical Twilight 6:03 AM ACST 6:29 PM ACST
Astronomical Twilight 5:33 AM ACST 6:58 PM ACST
Moon 2:07 PM ACST (5/9) 1:18 AM ACST (5/9)
Length of Visible Light 11h 26m
Length of Day
10h 34m
Waxing Gibbous, 68% of the Moon is Illuminated
May 9
Waxing Gibbous
May 15
Full
May 21
Last Quarter
May 29
New
Jun 6
First Quarter

Hourly Weather History & Observations

Time (ACST) Temp. Dew Point Humidity Pressure Visibility Wind Dir Wind Speed Gust Speed Precip Events Conditions
12:30 AM 59.0 °F 44.6 °F 59% 30.01 in 6.2 mi North 9.2 mph - N/A   Unknown
1:30 AM 59.0 °F 44.6 °F 59% 29.98 in 6.2 mi North 10.4 mph - N/A   Unknown
2:30 AM 59.0 °F 42.8 °F 55% 29.95 in 6.2 mi North 9.2 mph - N/A   Unknown
3:30 AM 60.8 °F 41.0 °F 48% 29.92 in 6.2 mi North 13.8 mph - N/A   Scattered Clouds
4:30 AM 59.0 °F 42.8 °F 55% 29.95 in 6.2 mi North 12.7 mph - N/A   Mostly Cloudy
5:30 AM 59.0 °F 42.8 °F 55% 29.95 in 6.2 mi North 15.0 mph - N/A   Overcast
6:30 AM 59.0 °F 42.8 °F 55% 29.95 in 6.2 mi North 18.4 mph - N/A   Overcast
7:28 AM 53.6 °F 50.0 °F 88% 29.98 in 3.1 mi NNW 21.9 mph - N/A   Overcast
7:30 AM 53.6 °F 50.0 °F 88% 29.98 in 3.1 mi North 20.7 mph - N/A   Overcast
7:46 AM 53.6 °F 50.0 °F 88% 29.95 in 6.2 mi North 18.4 mph - N/A   Overcast
8:30 AM 53.6 °F 50.0 °F 88% 29.98 in 6.2 mi North 16.1 mph - N/A   Overcast
9:30 AM 55.4 °F 51.8 °F 88% 30.01 in 6.2 mi NNW 11.5 mph - N/A   Overcast
10:30 AM 57.2 °F 51.8 °F 82% 30.01 in 6.2 mi North 18.4 mph - N/A   Overcast
11:30 AM 57.2 °F 51.8 °F 82% 29.98 in 6.2 mi North 19.6 mph - N/A   Overcast
12:30 PM 57.2 °F 53.6 °F 88% 29.95 in 6.2 mi North 18.4 mph - N/A   Overcast
1:20 PM 55.4 °F 53.6 °F 94% 29.95 in 3.1 mi North 18.4 mph - N/A   Overcast
1:30 PM 55.4 °F 53.6 °F 94% 29.92 in 6.2 mi North 15.0 mph - N/A   Overcast
1:32 PM 57.2 °F 53.6 °F 88% 29.92 in 6.2 mi North 15.0 mph - N/A   Overcast
2:30 PM 57.2 °F 53.6 °F 88% 29.92 in 6.2 mi North 16.1 mph - N/A   Overcast
3:30 PM 57.2 °F 53.6 °F 88% 29.92 in 6.2 mi North 19.6 mph - N/A   Overcast
4:30 PM 57.2 °F 55.4 °F 94% 29.95 in 6.2 mi North 12.7 mph - N/A   Overcast
4:34 PM 57.2 °F 55.4 °F 94% 29.95 in 6.2 mi North 12.7 mph - N/A   Overcast
4:48 PM 57.2 °F 55.4 °F 94% 29.95 in 6.2 mi North 15.0 mph - N/A   Overcast
5:00 PM 57.2 °F 55.4 °F 94% 29.95 in 6.2 mi North 12.7 mph - N/A   Overcast
5:22 PM 57.2 °F 55.4 °F 94% 29.95 in 5.6 mi North 13.8 mph - N/A   Overcast
5:30 PM 57.2 °F 55.4 °F 94% 29.95 in 6.2 mi North 12.7 mph - N/A   Overcast
5:36 PM 57.2 °F 55.4 °F 94% 29.95 in 6.2 mi NNW 11.5 mph - N/A   Overcast
6:00 PM 57.2 °F 55.4 °F 94% 29.98 in 6.2 mi NNW 11.5 mph - N/A   Overcast
6:30 PM 57.2 °F 55.4 °F 94% 29.98 in 6.2 mi North 11.5 mph - N/A   Overcast
6:45 PM 57.2 °F 55.4 °F 94% 29.98 in 6.2 mi North 9.2 mph - N/A   Overcast
6:59 PM 57.2 °F 55.4 °F 94% 29.98 in 6.2 mi North 9.2 mph - N/A   Overcast
7:30 PM 57.2 °F 55.4 °F 94% 29.98 in 6.2 mi North 10.4 mph - N/A   Mostly Cloudy
8:30 PM 55.4 °F 53.6 °F 94% 30.01 in 6.2 mi NNW 8.1 mph - N/A   Scattered Clouds
8:31 PM 55.4 °F 53.6 °F 94% 30.01 in 6.2 mi NNW 8.1 mph - N/A   Scattered Clouds
8:48 PM 55.4 °F 53.6 °F 94% 30.01 in 6.2 mi NNW 6.9 mph - N/A   Mostly Cloudy
9:00 PM 55.4 °F 55.4 °F 100% 30.01 in 6.2 mi NNW 6.9 mph - N/A   Overcast
9:30 PM 57.2 °F 55.4 °F 94% 30.01 in 6.2 mi NNW 11.5 mph - N/A   Overcast
10:00 PM 55.4 °F 55.4 °F 100% 30.01 in 6.2 mi North 9.2 mph - N/A   Overcast
10:30 PM 57.2 °F 55.4 °F 94% 30.04 in 6.2 mi North 9.2 mph - N/A   Overcast
11:00 PM 57.2 °F 55.4 °F 94% 30.04 in 6.2 mi NNW 9.2 mph - N/A   Overcast
11:30 PM 57.2 °F 55.4 °F 94% 30.04 in 6.2 mi NW 6.9 mph - N/A   Overcast